Weather History for Raleigh-Durham Airport, NC

Change the Weather History Date:

Wednesday, January 16, 2013

  Actual Average Record
Temperature  
Mean Temperature 46 °F 41 °F  
Max Temperature 50 °F 51 °F 73 °F (1953)
Min Temperature 42 °F 31 °F 3 °F (1994)
Degree Days  
Heating Degree Days 19 24  
Month to date heating degree days 268 390  
Since 1 July heating degree days 1445 1641  
Cooling Degree Days 0 0  
Month to date cooling degree days 0 0  
Year to date cooling degree days 0 0  
Moisture  
Dew Point 45 °F    
Average Humidity 96    
Maximum Humidity 100    
Minimum Humidity 92    
Precipitation  
Precipitation 0.18 in 0.12 in 1.70 in (1924)
Month to date precipitation 0.86 1.81  
Year to date precipitation 0.86 1.81  
Snow  
Snow 0.00 in 0.10 in 3.70 in (1965)
Month to date snowfall 0.0 1.4  
Since 1 July snowfall 0.0 2.1  
Snow Depth 0.00 in    
Sea Level Pressure  
Sea Level Pressure 30.02 in    
Wind  
Wind Speed 3 mph (North)    
Max Wind Speed 8 mph    
Max Gust Speed 13 mph    
Visibility 2 miles    
Events Fog , Rain    
T = Trace of Precipitation, MM = Missing Value Source: NWS Daily Summary

Daily Weather History Graph

Daily Weather History Graph

Search for Another Location

Airport:

Trip Planner

Search our weather history database for the weather conditions in past years. The results will help you decide how hot, cold, wet, or windy it might be!

Date:

Astronomy

Jan. 16, 2013 Rise Set
Actual Time 7:24 AM EST 5:25 PM EST
Civil Twilight 6:56 AM EST 5:53 PM EST
Nautical Twilight 6:25 AM EST 6:25 PM EST
Astronomical Twilight 5:54 AM EST 6:55 PM EST
Moon 10:11 AM EST (1/16) 11:02 PM EST (1/16)
Length of Visible Light 10h 57m
Length of Day
10h 01m
Waxing Crescent, 28% of the Moon is Illuminated
Jan 16
Waxing Crescent
Jan 18
First Quarter
Jan 26
Full
Feb 3
Last Quarter
Feb 10
New

Hourly Weather History & Observations

Time (EST) Temp. Windchill Dew Point Humidity Pressure Visibility Wind Dir Wind Speed Gust Speed Precip Events Conditions
12:51 AM 45.0 °F - 44.1 °F 97% 30.05 in 0.5 mi Calm Calm - 0.00 in Fog Light Drizzle
1:51 AM 44.1 °F 40.8 °F 43.0 °F 96% 30.06 in 0.5 mi Variable 5.8 mph - 0.00 in Fog Light Drizzle
2:51 AM 44.1 °F - 43.0 °F 96% 30.05 in 0.5 mi Calm Calm - 0.00 in Fog Fog
3:51 AM 44.1 °F 42.5 °F 43.0 °F 96% 30.05 in 0.5 mi Variable 3.5 mph - N/A Fog Fog
4:51 AM 43.0 °F 39.5 °F 42.1 °F 97% 30.04 in 0.5 mi North 5.8 mph - N/A Fog Fog
5:51 AM 43.0 °F 41.3 °F 42.1 °F 97% 30.03 in 4.0 mi NNE 3.5 mph - 0.04 in   Light Drizzle
6:51 AM 43.0 °F - 42.1 °F 97% 30.03 in 8.0 mi Calm Calm - 0.00 in   Overcast
7:44 AM 42.8 °F - 41.0 °F 93% 30.03 in 1.5 mi Calm Calm - N/A   Overcast
7:51 AM 42.1 °F 40.2 °F 41.0 °F 96% 30.04 in 0.5 mi NNE 3.5 mph - N/A Fog Fog
8:51 AM 42.1 °F 39.2 °F 41.0 °F 96% 30.05 in 0.5 mi NNE 4.6 mph - 0.00 in Fog Drizzle
9:51 AM 43.0 °F - 42.1 °F 97% 30.06 in 0.2 mi Calm Calm - 0.00 in Fog Fog
10:47 AM 44.6 °F 42.2 °F 42.8 °F 93% 30.04 in 0.1 mi North 4.6 mph - N/A Fog Fog
10:51 AM 44.1 °F 42.5 °F 42.1 °F 93% 30.04 in 0.1 mi North 3.5 mph - N/A Fog Fog
11:51 AM 43.0 °F 41.3 °F 42.1 °F 97% 30.05 in 1.0 mi Variable 3.5 mph - 0.01 in Rain Light Rain
12:15 PM 42.8 °F 39.3 °F 42.8 °F 100% 30.04 in 2.0 mi North 5.8 mph - 0.01 in Rain Light Rain
12:51 PM 44.1 °F 41.5 °F 42.1 °F 93% 30.03 in 2.0 mi North 4.6 mph - 0.02 in Rain Light Rain
1:32 PM 44.6 °F 41.4 °F 42.8 °F 93% 30.00 in 2.0 mi South 5.8 mph - 0.05 in Rain Light Rain
1:51 PM 45.0 °F 42.6 °F 44.1 °F 97% 29.99 in 2.0 mi South 4.6 mph - 0.05 in Rain Light Rain
2:19 PM 46.4 °F - 44.6 °F 93% 29.99 in 2.0 mi Calm Calm - 0.00 in   Overcast
2:51 PM 46.9 °F - 45.0 °F 93% 29.98 in 2.0 mi SSE 4.6 mph - 0.00 in   Overcast
3:41 PM 48.2 °F - 46.4 °F 93% 29.99 in 2.0 mi Calm Calm - N/A   Overcast
3:51 PM 48.0 °F - 46.0 °F 93% 30.00 in 2.0 mi Calm Calm - N/A   Overcast
4:13 PM 48.2 °F - 46.4 °F 93% 30.00 in 3.0 mi Calm Calm - N/A   Overcast
4:51 PM 48.9 °F - 46.9 °F 93% 29.99 in 3.0 mi Calm Calm - N/A   Overcast
5:05 PM 48.2 °F - 46.4 °F 93% 29.99 in 1.5 mi Variable 3.5 mph - N/A   Overcast
5:51 PM 48.9 °F - 48.0 °F 97% 29.99 in 1.5 mi SSW 5.8 mph - N/A   Overcast
6:30 PM 48.2 °F - 48.2 °F 100% 30.00 in 1.0 mi WNW 4.6 mph - N/A   Mostly Cloudy
6:41 PM 48.2 °F - 48.2 °F 100% 29.99 in 0.5 mi Calm Calm - N/A Fog Fog
6:51 PM 48.9 °F - 48.0 °F 97% 30.00 in 0.1 mi WNW 3.5 mph - N/A Fog Fog
7:51 PM 48.0 °F - 46.9 °F 96% 30.00 in 0.1 mi Calm Calm - N/A Fog Fog
7:58 PM 48.2 °F - 46.4 °F 93% 30.00 in 0.2 mi Calm Calm - N/A Fog Fog
8:51 PM 48.0 °F - 46.9 °F 96% 30.01 in 1.0 mi Calm Calm - N/A   Mostly Cloudy
9:08 PM 48.2 °F - 46.4 °F 93% 30.00 in 2.5 mi Calm Calm - N/A   Mostly Cloudy
9:51 PM 48.9 °F - 48.0 °F 97% 29.99 in 6.0 mi Calm Calm - N/A   Mostly Cloudy
10:51 PM 48.9 °F - 48.0 °F 97% 29.99 in 4.0 mi Calm Calm - 0.01 in Rain Light Rain
11:06 PM 48.2 °F - 48.2 °F 100% 29.99 in 2.0 mi South 3.5 mph - 0.01 in Rain Light Rain
11:51 PM 50.0 °F - 48.0 °F 93% 29.99 in 3.0 mi South 4.6 mph - 0.04 in Rain Light Rain